Hourly Weather Roundup
Issued by NWS Central Illinois

Home | Current Version | Previous Version | Text Only | Print | Product List | Glossary On
Versions: 1 2 3 4 5 6 7 8 9 10 11 12 13 14 15 16 17 18 19 20 21 22 23 24 25 26 27 28 29 30 31 32 33 34 35 36 37 38 39 40 41 42 43 44 45 46 47 48 49 50
000
NZUS43 KILX 282110
HWRILX

Area Weather Roundup
National Weather Service Lincoln IL
400 PM CDT FRI APR 28 2017

NOTE:  "FAIR" indicates few or no clouds below 12,000 feet, with
       no sigificant weather and/or obstructions to visibility.


CITY           SKY/WX    TMP DP  RH WIND       PRES   REMARKS
Bloomington    CLOUDY    56  53  90 SE9       29.79F
Champaign      CLOUDY    54  51  90 E12       29.78F
Danville       LGT RAIN  53  52  95 E8        29.80F
Decatur        LGT RAIN  54  54 100 SE15      29.80F
Effingham      TSTM      57  56  96 E6        29.81R
Flora            N/A    N/A N/A N/A NE5       29.77R THUNDER
Galesburg      CLOUDY    56  53  88 E6        29.77F
Jacksonville   CLOUDY    57  54  89 SE7       29.77R
Lacon          CLOUDY    59  53  79 SE9       29.79F
Lawrenceville  CLOUDY    62  58  86 E12       29.76F
Litchfield     CLOUDY    53  53  98 E8        29.80F
$$


CITY           SKY/WX    TMP DP  RH WIND       PRES   REMARKS
Lincoln        CLOUDY    58  55  92 S5        29.79R
Macomb         CLOUDY    58  55  90 E6        29.79S
Mattoon        TSTM      53  53 100 E8        29.79F FOG
Mt Carmel AP   CLOUDY    63  57  82 E12       29.74F THUNDER
Olney-Noble AP   N/A     60  60 100 SE17      29.73F THUNDER
Paris AP       TSTM      54  53  95 NE14      29.78F
Peoria         CLOUDY    59  54  83 SE6       29.80R
Pontiac        CLOUDY    60  56  85 S10G20    29.82S
Rantoul        LGT RAIN  56  54  91 E13       29.79F
Robinson       TSTM      57  55  94 E13       29.78F
Springfield    CLOUDY    58  55  90 SE12      29.80R
Taylorville    CLOUDY    54  53  96 SE10      29.79R
$$

...REGIONAL REPORTS...


CITY           SKY/WX    TMP DP  RH WIND       PRES   REMARKS
Chicago O`Hare CLOUDY    58  45  62 E10       29.85F
Kankakee       CLOUDY    62  51  66 SE13      29.83F
Moline         CLOUDY    49  45  86 E12       29.80F FOG
Mount Sterling CLOUDY    57  55  91 SE9       29.77R
Mount Vernon   RAIN      61  61 100 E12       29.74R FOG
Pittsfield     CLOUDY    58  55  91 SE7       29.78R
Quincy         CLOUDY    59  55  87 SE7       29.75R
Rockford       CLOUDY    51  45  79 NE10      29.88F
$$


CITY           SKY/WX    TMP DP  RH WIND       PRES   REMARKS
Burlington     CLOUDY    54  53  97 N8        29.78R FOG
Cedar Rapids   LGT RAIN  42  42 100 NE15      29.84F FOG     WCI  34
Des Moines     CLOUDY    42  39  89 NE15      29.86R WCI  34
Kirksville     CLOUDY    49  31  49 N12       29.76S HAZE
Ottumwa        CLOUDY    42  42 100 NE12      29.81S FOG
St Louis       DRIZZLE   57  55  93 E8        29.78F FOG
$$


CITY           SKY/WX    TMP DP  RH WIND       PRES   REMARKS
Terre Haute    LGT RAIN  59  54  83 E9        29.79F
Evansville     CLOUDY    73  62  68 SE12      29.78F
Indianapolis   CLOUDY    62  50  64 E10       29.86F
Lafayette      CLOUDY    54  52  93 SE5       29.90R
Madison        CLOUDY    48  35  60 E3        29.89F
Milwaukee      CLOUDY    47  39  74 E9        29.90F
$$






USA.gov is the U.S. government's official web portal to all federal, state and local government web resources and services.